#timestamp,LO_Frequency,Hit,StdDev 
1651471215.7,286046998.5,N
1651471235.5,286047001.1,N
1651471255.3,286046998.9,N
1651471275.2,286046996.8,N
1651471295.0,286046997.8,N
1651471295.9,286046997.8,N
1651471315.7,286046996.8,N
1651471335.6,286046996.8,N
1651471355.4,286046998.8,N
1651471375.3,286046999.2,N
1651471395.1,286046998.4,N
1651471396.0,286046998.4,N
1651471415.8,286046999.6,N
1651471435.7,286046997.0,N
1651471455.5,286046999.2,N
1651471475.3,286046996.9,N
1651471495.2,286046999.2,N
1651471515.0,286046996.8,N
1651471515.9,286046996.8,N
1651471535.8,286046995.1,Y
1651471555.6,286046999.3,P
1651471575.4,286047001.1,N
1651471595.3,286046998.6,N
1651471615.1,286047001.1,N
1651471635.9,286047000.4,N
1651471655.7,286047000.5,N
1651471675.5,286046998.2,N
1651471695.4,286047000.8,N
1651471715.2,286046999.0,N
1651471735.0,286046997.1,N
1651471735.9,286046997.1,N
1651471755.8,286046997.8,N
1651471775.6,286046997.2,N
1651471795.5,286046997.3,N
1651471815.3,286046997.6,N
1651471835.1,286046996.8,N
1651471855.9,286046997.2,N
1651471875.7,286046997.8,N
1651471895.5,286046997.2,N
1651471915.4,286046997.4,N
1651471935.2,286046997.7,N
1651471955.1,286046996.6,N
1651471956.0,286046996.6,N
1651471975.8,286046996.9,N
1651471995.6,286046999.2,N
1651472015.5,286046997.3,N
1651472035.3,286046996.7,N
1651472055.1,286046996.7,N
1651472075.9,286046997.1,N
1651472095.7,286046995.0,Y
1651472115.6,286046998.3,P
1651472135.4,286046998.7,P
1651472155.2,286047000.9,P
1651472175.1,286046999.9,N
1651472176.0,286046999.9,N
1651472195.8,286046999.7,N
1651472215.6,286047002.7,N
1651472235.5,286047000.3,N
1651472255.3,286047002.4,N
1651472275.2,286046999.9,N
1651472295.9,286047000.2,N
1651472315.7,286047002.7,N
1651472335.6,286047002.3,N
1651472355.4,286047001.3,N
1651472375.2,286047000.2,N
1651472395.1,286047002.0,N
1651472396.0,286047002.0,N
1651472415.8,286047002.2,N
1651472435.7,286047003.8,N
1651472455.5,286047004.1,N
1651472475.3,286047002.6,N
1651472525.2,286047001.4,E
1651472535.1,286047002.1,N
1651472555.9,286046999.9,P
1651472575.7,286047001.8,N
1651472595.5,286047002.8,N
1651472615.4,286047002.1,N
1651472635.2,286047002.4,N
1651472655.1,286047003.9,Y
1651472656.0,286047003.9,P
1651472675.8,286047002.3,N
1651472695.6,286047002.8,P
1651472715.5,286047001.6,N
1651472735.3,286047000.1,N
1651472755.1,286047000.0,N
1651472775.9,286046998.5,N
1651472795.7,286047000.7,N
1651472815.6,286047001.0,N
1651472835.4,286046998.2,N
1651472855.2,286046998.2,N
1651472875.1,286046999.9,N
1651472876.0,286046999.9,N
1651472895.8,286047001.2,N
1651472915.6,286046998.1,N
1651472935.5,286047001.1,N
1651472955.3,286046998.5,N
1651472975.2,286047001.0,N
1651472995.9,286047000.9,N
1651473015.7,286046998.2,N
1651473035.6,286046999.9,N
1651473055.4,286047002.3,N
1651473075.2,286047001.2,N
1651473095.1,286047001.1,N
1651473096.0,286047001.1,N
1651473115.8,286046999.0,N
1651473135.7,286046996.5,N
1651473155.5,286046999.6,N
1651473175.3,286046996.8,N
1651473195.2,286046999.2,N
1651473215.0,286046999.1,N
1651473215.9,286046999.1,N
1651473235.7,286046999.6,N
1651473255.6,286046998.3,N
1651473275.4,286047001.1,N
1651473295.3,286046998.5,N
1651473315.1,286047001.2,N
1651473316.0,286047001.2,N
1651473335.8,286047000.8,N
1651473355.7,286046998.1,N
1651473375.5,286046998.8,N
1651473395.4,286047000.5,N
1651473415.2,286046998.3,N
1651473435.0,286047000.9,N
1651473435.9,286047000.9,N
1651473455.8,286047000.6,N
1651473475.6,286046999.8,N
1651473495.4,286047000.3,N
1651473515.3,286047000.4,N
1651473535.1,286047000.5,N
1651473555.9,286047000.0,N
1651473575.7,286047002.1,N
1651473595.5,286047002.2,N
1651473615.4,286047002.3,N
1651473635.2,286047002.2,N
1651473655.0,286047002.4,N
1651473655.9,286047002.4,N
1651473675.8,286047002.5,N
1651473695.6,286046999.7,N
1651473715.5,286047000.1,N
1651473735.3,286047000.5,N
1651473755.1,286046998.2,N
1651473775.9,286047000.0,N
1651473795.7,286047001.1,N
1651473815.6,286046998.2,N
1651473835.4,286047000.9,N
1651473855.2,286046998.3,N
1651473875.4,286047000.9,N
1651473895.2,286047000.6,N
1651473915.1,286046998.1,N
1651473916.0,286046998.1,N
1651473935.8,286047000.0,N
1651473955.7,286047000.1,N
1651473975.5,286047002.6,N
1651473995.3,286046999.8,N
1651474015.2,286047002.6,N
1651474035.0,286046999.8,N
1651474035.9,286046999.8,N
1651474055.8,286046999.8,N
1651474075.6,286047002.7,N
1651474095.4,286047000.8,N
1651474115.3,286047001.1,N
1651474135.1,286047000.2,N
1651474155.9,286046999.9,N
1651474175.7,286047000.2,N
1651474195.5,286047002.3,N
1651474215.4,286047002.1,N
1651474235.2,286047001.9,N
1651474255.0,286047000.2,N
1651474255.9,286047000.2,N
1651474275.8,286046999.7,N
1651474295.6,286047000.9,N
1651474315.5,286047000.7,N
1651474335.3,286047000.4,N
1651474355.1,286047000.9,N
1651474375.9,286046999.7,N
1651474395.7,286047002.2,N
1651474415.6,286047000.5,N
1651474435.4,286047000.4,N
1651474455.2,286047000.9,N
1651474475.1,286047000.6,N
1651474476.0,286047000.6,N
1651474495.8,286047000.8,N
1651474515.6,286047000.8,N
1651474535.5,286047000.5,N
1651474555.3,286047000.6,N
1651474575.2,286046999.8,N
1651474595.9,286047002.2,N
1651474615.7,286047000.0,N
1651474635.6,286047002.3,N
1651474655.4,286047002.2,N
1651474675.3,286047001.9,N
1651474695.1,286047002.3,N
1651474696.0,286047002.3,N
1651474715.8,286047002.1,N
1651474735.7,286047001.9,N
1651474755.5,286047002.0,N
1651474775.4,286047002.5,N
1651474795.2,286047002.2,N
